Location: Moorefield
(40.6897°N, 100.3996°W)
Time: 15:20:38
(UTC+00:00)

OTV 5 (USA 277) - Visible Passes

Search period start: 23 August 2019 00:00
Search period end: 02 September 2019 00:00
Orbit: 305 x 329 km, 54.5° (Epoch: 20 August)

Date Brightness Start Highest point End Pass type
(mag) Time Alt. Az. Time Alt. Az. Time Alt. Az.
23 Aug ? 02:35:06 10° S 02:36:02 16° SSE 02:36:02 16° SSE visible
23 Aug ? 10:32:46 38° S 10:32:46 38° S 10:34:40 10° SSE visible
24 Aug ? 02:48:59 10° SW 02:51:40 67° SE 02:52:23 41° ENE visible
25 Aug ? 03:03:40 10° WSW 03:06:14 38° NW 03:07:59 17° NNE visible
26 Aug ? 03:19:01 10° WNW 03:20:58 17° NNW 03:22:53 10° NNE visible
27 Aug ? 01:58:21 10° SW 02:01:02 67° NW 02:03:43 10° NE visible
28 Aug ? 02:13:21 10° W 02:15:41 25° NNW 02:18:00 10° NNE visible
29 Aug ? 02:29:04 10° WNW 02:30:28 13° NNW 02:31:53 10° N visible
